FW0596 Weather Reports


time (UTC)temp
C
wind
direction
speed
KPH
gust
KPH
rain 1hr
cm
rain 24hr
cm
rain mn
cm
humidity
%
barometer
mb
20260510171544 25 153 0.0 0.0 0.00 0.00 0.00 56 1011.7
20260510170045 25 92 1.6 0.0 0.00 0.00 0.00 61 1011.8
20260510164545 23 201 1.6 0.0 0.00 0.00 0.00 62 1012.0
20260510163050 23 215 1.6 0.0 0.00 0.00 0.00 60 1012.3
20260510161551 23 200 1.6 0.0 0.00 0.00 0.00 61 1012.3
20260510160051 23 201 0.0 0.0 0.00 0.00 0.00 62 1012.1
20260510154534 23 213 0.0 0.0 0.00 0.00 0.00 64 1012.3
20260510153034 22 200 0.0 0.0 0.00 0.00 0.00 66 1012.3
20260510151528 21 97 0.0 0.0 0.00 0.00 0.00 73 1012.2
20260510150027 20 92 0.0 0.0 0.00 0.00 0.00 74 1012.1
20260510144536 20 103 0.0 0.0 0.00 0.00 0.00 74 1011.8
20260510143040 21 114 0.0 0.0 0.00 0.00 0.00 72 1011.6
20260510141534 21 107 0.0 0.0 0.00 0.00 0.00 72 1011.5
20260510140029 21 102 0.0 0.0 0.00 0.00 0.00 72 1011.7
20260510134524 21 96 0.0 0.0 0.00 0.00 0.00 72 1011.7
20260510133031 20 178 0.0 0.0 0.00 0.00 0.00 70 1011.7
20260510131516 19 276 0.0 0.0 0.00 0.00 0.00 75 1011.9
20260510130012 17 271 0.0 0.0 0.00 0.00 0.00 79 1012.0
20260510124507 17 269 0.0 0.0 0.00 0.00 0.00 82 1012.0
20260510123007 16 350 0.0 0.0 0.00 0.00 0.00 84 1012.0
20260510121600 15 350 0.0 0.0 0.00 0.00 0.00 87 1011.8
20260510120056 14 349 0.0 0.0 0.00 0.00 0.00 89 1011.7
20260510114553 13 70 0.0 0.0 0.00 0.00 0.00 93 1011.7
20260510113056 13 70 0.0 0.0 0.00 0.00 0.00 94 1011.4
20260510111555 12 70 0.0 0.0 0.00 0.00 0.00 94 1011.1
20260510110046 11 70 0.0 0.0 0.00 0.00 0.00 94 1010.6
20260510104550 11 70 0.0 0.0 0.00 0.00 0.00 93 1010.4
20260510103048 11 70 0.0 0.0 0.00 0.00 0.00 93 1010.2
20260510101541 11 70 0.0 0.0 0.00 0.00 0.00 93 1010.1
20260510100040 11 70 0.0 0.0 0.00 0.00 0.00 93 1010.1
20260510094541 11 70 0.0 0.0 0.00 0.00 0.00 93 1010.1
20260510093043 11 70 0.0 0.0 0.00 0.00 0.00 93 1010.1
20260510091536 11 70 0.0 0.0 0.00 0.00 0.00 93 1009.9
20260510090035 11 70 0.0 0.0 0.00 0.00 0.00 93 1009.8
20260510084533 11 70 0.0 0.0 0.00 0.00 0.00 93 1009.6
20260510083037 11 70 0.0 0.0 0.00 0.00 0.00 92 1009.5
20260510081539 11 70 0.0 0.0 0.00 0.00 0.00 92 1009.2
20260510080029 12 70 0.0 0.0 0.00 0.00 0.00 92 1009.0
20260510074526 11 70 0.0 0.0 0.00 0.00 0.00 92 1008.9
20260510073025 12 70 0.0 0.0 0.00 0.00 0.00 92 1008.7
20260510071522 12 70 0.0 0.0 0.00 0.00 0.00 92 1008.7
20260510070024 12 70 0.0 0.0 0.00 0.00 0.00 92 1008.7
20260510064532 12 70 0.0 0.0 0.00 0.00 0.00 92 1008.7
20260510063032 12 70 0.0 0.0 0.00 0.00 0.00 92 1008.7
20260510061521 12 70 0.0 0.0 0.00 0.00 0.00 91 1008.6
20260510060033 12 70 0.0 0.0 0.00 0.00 0.00 91 1008.3
20260510054519 12 70 0.0 0.0 0.00 0.00 0.00 91 1008.6
20260510053022 13 70 0.0 0.0 0.00 0.00 0.00 91 1008.6
20260510051520 13 70 0.0 0.0 0.00 0.00 0.00 90 1008.7
20260510050015 13 70 0.0 0.0 0.00 0.00 0.00 90 1008.7
20260510044527 13 70 0.0 0.0 0.00 0.00 0.00 90 1008.8
20260510043009 13 70 0.0 0.0 0.00 0.00 0.00 90 1008.8
20260510041506 13 70 0.0 0.0 0.00 0.00 0.00 89 1008.7
20260510040004 13 70 0.0 0.0 0.00 0.00 0.00 88 1008.6
20260510034502 14 70 0.0 0.0 0.00 0.00 0.00 88 1008.6
20260510033001 14 70 0.0 0.0 0.00 0.00 0.00 87 1008.5
20260510031600 15 70 0.0 0.0 0.00 0.00 0.00 87 1008.5
20260510030112 15 70 0.0 0.0 0.00 0.00 0.00 87 1008.4
20260510024559 15 70 0.0 0.0 0.00 0.00 0.00 86 1008.4
20260510023058 15 70 0.0 0.0 0.00 0.00 0.00 86 1008.4
20260510021557 15 70 0.0 0.0 0.00 0.00 0.00 86 1008.4
20260510020057 15 70 0.0 0.0 0.00 0.00 0.00 85 1008.3
20260510014602 15 70 0.0 0.0 0.00 0.00 0.00 84 1008.2
20260510013057 16 70 0.0 0.0 0.00 0.00 0.00 83 1008.0
20260510011555 16 70 0.0 0.0 0.00 0.00 0.00 83 1007.9
20260510010054 16 70 0.0 0.0 0.00 0.00 0.00 82 1007.9
20260510004553 17 70 0.0 0.0 0.00 0.00 0.00 81 1007.7
20260510003101 17 70 0.0 0.0 0.00 0.00 0.00 81 1007.6
20260510001555 17 70 0.0 0.0 0.00 0.00 0.00 81 1007.5
20260510000056 17 70 0.0 0.0 0.00 0.00 0.00 80 1007.4
20260509234557 18 70 0.0 0.0 0.00 0.00 0.00 79 1007.2
20260509233059 18 69 0.0 0.0 0.00 0.00 0.00 78 1007.2
20260509231553 19 109 0.0 0.0 0.00 0.00 0.00 76 1007.2
20260509230050 19 136 0.0 0.0 0.00 0.00 0.00 74 1007.1
20260509224549 20 200 0.0 0.0 0.00 0.00 0.00 71 1007.0
20260509223056 21 192 0.0 0.0 0.00 0.00 0.00 69 1007.2
20260509221548 21 105 0.0 0.0 0.00 0.00 0.00 69 1007.2
20260509220048 21 198 0.0 0.0 0.00 0.00 0.00 66 1007.1
20260509214549 21 197 0.0 0.0 0.00 0.00 0.00 61 1007.0
20260509213049 22 200 0.0 0.0 0.00 0.00 0.00 59 1007.0
20260509211546 21 196 1.6 0.0 0.00 0.00 0.00 62 1006.7
20260509210046 21 200 0.0 0.0 0.00 0.00 0.00 64 1006.7
20260509204545 21 198 0.0 0.0 0.00 0.00 0.00 65 1006.8
20260509203044 20 200 0.0 0.0 0.00 0.00 0.00 68 1006.9
20260509201553 20 197 0.0 0.0 0.00 0.00 0.00 69 1007.3
20260509200051 20 205 1.6 0.0 0.00 0.00 0.00 67 1007.4
20260509194539 20 175 1.6 0.0 0.00 0.00 0.00 68 1007.5
20260509193054 20 198 0.0 0.0 0.00 0.00 0.00 70 1007.5
20260509191537 18 200 0.0 0.0 0.00 0.00 0.00 75 1007.6
20260509190036 18 200 0.0 0.0 0.00 0.00 0.00 77 1008.3
20260509184541 20 200 0.0 0.0 0.00 0.00 0.00 70 1008.5
20260509183036 21 225 0.0 0.0 0.00 0.00 0.00 55 1008.2
20260509181530 21 255 0.0 0.0 0.00 0.00 0.00 56 1008.5
20260509180031 21 221 0.0 0.0 0.00 0.00 0.00 56 1008.7
20260509174529 21 5 0.0 0.0 0.00 0.00 0.00 54 1008.7
20260509173028 21 253 0.0 0.0 0.00 0.00 0.00 53 1008.6